Location: Cannifist
(18.2333°N, 63.0167°W)
Time: 14:25:24
(UTC+00:00)

CSL-04 Rocket - Pass Details

Date: 27 February 2020
Orbit: 806 x 861 km, 99.0° (Epoch: 08 April)

Event Time Altitude Azimuth Distance (km) Brightness Sun altitude
Rises 22:27:25 0° 143° (SE) 3,424 6.6 -3.2°
Reaches altitude 10° 22:30:04 10° 133° (SE) 2,487 5.8 -3.8°
Maximum altitude 22:34:48 30° 73° (ENE) 1,488 4.5 -4.9°
Drops below altitude 10° 22:39:31 10° 14° (NNE) 2,473 5.9 -6.0°
Sets 22:42:07 0° 4° (N) 3,402 6.7 -6.7°
